KE7JVX-3 Weather Reports


Display with metric or nautical units.
time (UTC)temp
F
wind
direction
speed
MPH
gust
MPH
rain 1hr
in
rain 24hr
in
rain mn
in
humidity
%
barometer
mb
20180117215210 38 58 11.0 18.0 0.00 0.00 0.00 24 1014.4
20180117214210 38 54 10.0 16.0 0.00 0.00 0.00 24 1014.6
20180117213209 38 54 8.0 17.0 0.00 0.00 0.00 25 1014.5
20180117212209 38 53 8.0 14.0 0.00 0.00 0.00 26 1014.6
20180117211209 38 49 7.0 14.0 0.00 0.00 0.00 27 1014.7
20180117210209 38 48 7.0 14.0 0.00 0.00 0.00 26 1014.7
20180117205209 38 54 7.0 14.0 0.00 0.00 0.00 26 1014.8
20180117204210 38 50 6.0 13.0 0.00 0.00 0.00 26 1014.8
20180117203210 38 53 8.0 12.0 0.00 0.00 0.00 27 1014.8
20180117202209 38 52 6.0 12.0 0.00 0.00 0.00 28 1015.1
20180117201209 38 49 6.0 12.0 0.00 0.00 0.00 27 1015.2
20180117200209 38 51 6.0 11.0 0.00 0.00 0.00 28 1015.3
20180117195209 38 49 5.0 10.0 0.00 0.00 0.00 29 1015.4
20180117194209 38 51 6.0 10.0 0.00 0.00 0.00 29 1015.4
20180117193210 38 51 4.0 10.0 0.00 0.00 0.00 30 1015.6
20180117192209 38 43 6.0 10.0 0.00 0.00 0.00 28 1015.7
20180117191209 38 46 5.0 13.0 0.00 0.00 0.00 28 1015.9
20180117190210 37 56 7.0 13.0 0.00 0.00 0.00 28 1016.0
20180117185209 37 53 7.0 15.0 0.00 0.00 0.00 29 1016.1
20180117184210 37 51 7.0 14.0 0.00 0.00 0.00 29 1016.2
20180117183209 36 60 9.0 16.0 0.00 0.00 0.00 29 1016.2
20180117182213 36 52 9.0 15.0 0.00 0.00 0.00 29 1016.3
20180117181209 35 59 9.0 17.0 0.00 0.00 0.00 29 1016.3
20180117180209 36 59 9.0 14.0 0.00 0.00 0.00 28 1016.4
20180117175209 37 64 8.0 15.0 0.00 0.00 0.00 27 1016.4
20180117174209 37 59 7.0 15.0 0.00 0.00 0.00 26 1016.6
20180117173209 37 56 8.0 13.0 0.00 0.00 0.00 27 1016.7
20180117172209 37 75 9.0 16.0 0.00 0.00 0.00 27 1016.7
20180117171240 37 77 10.0 16.0 0.00 0.00 0.00 27 1016.7
20180117171209 37 77 10.0 16.0 0.00 0.00 0.00 27 1016.7
20180117170210 37 79 8.0 16.0 0.00 0.00 0.00 26 1016.6
20180117165209 37 76 8.0 16.0 0.00 0.00 0.00 26 1016.5
20180117164209 37 70 8.0 14.0 0.00 0.00 0.00 27 1016.4
20180117163209 37 70 9.0 16.0 0.00 0.00 0.00 27 1016.4
20180117161207 38 61 6.0 11.0 0.00 0.00 0.00 25 1016.2
20180117160214 38 69 5.0 13.0 0.00 0.00 0.00 25 1016.1
20180117155210 37 76 8.0 13.0 0.00 0.00 0.00 26 1016.0
20180117154209 37 73 9.0 13.0 0.00 0.00 0.00 27 1016.0
20180117153208 36 62 9.0 14.0 0.00 0.00 0.00 28 1015.9
20180117152246 37 70 6.0 11.0 0.00 0.00 0.00 27 1015.8
20180117152208 37 70 6.0 11.0 0.00 0.00 0.00 27 1015.8
20180117151208 37 71 6.0 10.0 0.00 0.00 0.00 26 1015.6
20180117150337 37 69 4.0 10.0 0.00 0.00 0.00 28 1015.5
20180117150209 37 69 4.0 10.0 0.00 0.00 0.00 28 1015.5
20180117145211 37 67 6.0 11.0 0.00 0.00 0.00 28 1015.4
20180117144209 36 70 7.0 10.0 0.00 0.00 0.00 30 1015.4
20180117143208 36 73 7.0 10.0 0.00 0.00 0.00 30 1015.4
20180117142357 36 62 5.0 9.0 0.00 0.00 0.00 30 1015.4
20180117142208 36 62 5.0 9.0 0.00 0.00 0.00 30 1015.4
20180117141208 37 63 5.0 11.0 0.00 0.00 0.00 30 1015.3
20180117140207 36 70 8.0 11.0 0.00 0.00 0.00 30 1015.2
20180117135209 36 66 7.0 12.0 0.00 0.00 0.00 31 1015.2
20180117134208 36 62 7.0 12.0 0.00 0.00 0.00 30 1015.2
20180117133213 36 67 8.0 13.0 0.00 0.00 0.00 30 1015.2
20180117132208 36 65 7.0 14.0 0.00 0.00 0.00 31 1015.1
20180117131210 36 69 10.0 15.0 0.00 0.00 0.00 30 1015.1
20180117130211 36 65 9.0 15.0 0.00 0.00 0.00 31 1015.1
20180117125209 36 76 9.0 13.0 0.00 0.00 0.00 31 1015.0
20180117124209 36 70 8.0 13.0 0.00 0.00 0.00 30 1015.0
20180117123414 36 66 9.0 13.0 0.00 0.00 0.00 30 1014.9
20180117123209 36 66 9.0 13.0 0.00 0.00 0.00 30 1014.9
20180117122247 36 67 8.0 12.0 0.00 0.00 0.00 30 1014.9
20180117122209 36 67 8.0 12.0 0.00 0.00 0.00 30 1014.9
20180117121209 35 69 8.0 11.0 0.00 0.00 0.00 30 1014.8
20180117120208 36 66 7.0 10.0 0.00 0.00 0.00 29 1014.8
20180117115329 37 69 8.0 13.0 0.00 0.00 0.00 28 1014.7
20180117115208 37 69 8.0 13.0 0.00 0.00 0.00 28 1014.7
20180117114210 37 70 8.0 13.0 0.00 0.00 0.00 29 1014.7
20180117113339 37 69 8.0 13.0 0.00 0.00 0.00 28 1014.8
20180117113208 36 58 8.0 11.0 0.00 0.00 0.00 29 1014.8
20180117112209 37 66 7.0 13.0 0.00 0.00 0.00 28 1014.8
20180117111209 37 67 7.0 14.0 0.00 0.00 0.00 27 1014.8
20180117105211 38 64 7.0 12.0 0.00 0.00 0.00 26 1014.8
20180117104211 38 63 8.0 13.0 0.00 0.00 0.00 27 1014.8
20180117103212 37 69 8.0 13.0 0.00 0.00 0.00 28 1014.8
20180117102211 38 71 10.0 14.0 0.00 0.00 0.00 26 1014.9
20180117101211 38 69 10.0 15.0 0.00 0.00 0.00 26 1014.9
20180117100249 38 74 11.0 16.0 0.00 0.00 0.00 27 1014.9
20180117100211 38 62 10.0 16.0 0.00 0.00 0.00 27 1014.9
20180117095210 38 74 11.0 16.0 0.00 0.00 0.00 27 1014.9
20180117094212 37 67 9.0 14.0 0.00 0.00 0.00 28 1015.3
20180117093211 37 67 8.0 18.0 0.00 0.00 0.00 27 1015.1
20180117092211 37 75 10.0 19.0 0.00 0.00 0.00 28 1015.1
20180117091210 37 71 10.0 16.0 0.00 0.00 0.00 29 1015.1
20180117090814 36 68 10.0 16.0 0.00 0.00 0.00 30 1015.1
20180117090210 36 68 10.0 16.0 0.00 0.00 0.00 30 1015.1
20180117085210 37 67 10.0 15.0 0.00 0.00 0.00 27 1015.1
20180117084210 38 69 9.0 16.0 0.00 0.00 0.00 25 1015.1
20180117083210 38 80 11.0 15.0 0.00 0.00 0.00 25 1015.1
20180117082210 38 77 10.0 14.0 0.00 0.00 0.00 26 1015.1
20180117081211 37 69 10.0 15.0 0.00 0.00 0.00 26 1015.1
20180117080210 36 48 7.0 13.0 0.00 0.00 0.00 26 1015.1
20180117075210 37 66 9.0 13.0 0.00 0.00 0.00 25 1015.2
20180117074211 37 55 5.0 12.0 0.00 0.00 0.00 25 1015.2
20180117073210 37 47 4.0 14.0 0.00 0.00 0.00 24 1015.2
20180117072210 37 71 8.0 13.0 0.00 0.00 0.00 24 1015.2
20180117071211 37 72 8.0 13.0 0.00 0.00 0.00 24 1015.2
20180117070210 36 87 9.0 18.0 0.00 0.00 0.00 27 1015.4
20180117065210 35 80 11.0 17.0 0.00 0.00 0.00 30 1015.3
20180117064210 35 89 10.0 17.0 0.00 0.00 0.00 28 1015.4
20180117063210 36 78 10.0 15.0 0.00 0.00 0.00 25 1015.5
20180117062210 37 74 10.0 15.0 0.00 0.00 0.00 25 1015.4
20180117061210 38 76 10.0 16.0 0.00 0.00 0.00 25 1015.5
20180117060210 37 66 6.0 15.0 0.00 0.00 0.00 23 1015.6
20180117054409 39 71 9.0 14.0 0.00 0.00 0.00 20 1015.5
20180117053409 38 65 8.0 13.0 0.00 0.00 0.00 21 1015.6
20180117052409 38 65 9.0 14.0 0.00 0.00 0.00 20 1015.5
20180117051409 39 66 8.0 13.0 0.00 0.00 0.00 19 1015.5
20180117050409 39 76 7.0 11.0 0.00 0.00 0.00 19 1015.7
20180117045527 39 77 7.0 12.0 0.00 0.00 0.00 19 1015.6
20180117045409 39 77 7.0 12.0 0.00 0.00 0.00 19 1015.6
20180117044410 39 71 6.0 9.0 0.00 0.00 0.00 18 1015.5
20180117043409 39 71 5.0 8.0 0.00 0.00 0.00 17 1015.5
20180117042409 40 65 4.0 8.0 0.00 0.00 0.00 16 1015.4
20180117041409 40 65 4.0 6.0 0.00 0.00 0.00 17 1015.6
20180117040412 40 60 3.0 6.0 0.00 0.00 0.00 17 1015.6
20180117035409 39 59 3.0 6.0 0.00 0.00 0.00 17 1015.8
20180117034409 39 57 3.0 6.0 0.00 0.00 0.00 17 1015.6
20180117033410 40 45 3.0 5.0 0.00 0.00 0.00 15 1015.5
20180117032409 41 45 2.0 3.0 0.00 0.00 0.00 13 1015.5
20180117031411 41 0 0.0 2.0 0.00 0.00 0.00 13 1015.5
20180117030412 41 45 1.0 3.0 0.00 0.00 0.00 12 1015.3
20180117025409 41 45 1.0 3.0 0.00 0.00 0.00 12 1015.4
20180117024409 41 45 1.0 2.0 0.00 0.00 0.00 12 1015.4
20180117023409 41 45 1.0 3.0 0.00 0.00 0.00 12 1015.3
20180117022409 41 45 2.0 4.0 0.00 0.00 0.00 12 1015.3
20180117021409 40 45 2.0 5.0 0.00 0.00 0.00 12 1015.2
20180117020410 41 45 2.0 4.0 0.00 0.00 0.00 11 1015.2
20180117015409 41 45 1.0 4.0 0.00 0.00 0.00 11 1015.1
20180117014409 41 45 1.0 4.0 0.00 0.00 0.00 11 1015.1
20180117013409 41 45 2.0 3.0 0.00 0.00 0.00 10 1015.0
20180117012409 41 45 2.0 5.0 0.00 0.00 0.00 10 1015.0
20180117011413 40 48 4.0 6.0 0.00 0.00 0.00 11 1014.9
20180117010409 40 62 4.0 9.0 0.00 0.00 0.00 12 1014.8
20180117005411 41 56 5.0 9.0 0.00 0.00 0.00 10 1014.7
20180117004412 41 69 3.0 5.0 0.00 0.00 0.00 10 1014.7
20180117003410 41 78 2.0 4.0 0.00 0.00 0.00 10 1014.8
20180117002412 41 79 2.0 5.0 0.00 0.00 0.00 9 1014.8
20180117001409 41 79 3.0 7.0 0.00 0.00 0.00 10 1014.8
20180117000413 40 77 4.0 7.0 0.00 0.00 0.00 11 1014.6
20180116235409 39 60 4.0 8.0 0.00 0.00 0.00 12 1014.6
20180116234409 40 67 6.0 10.0 0.00 0.00 0.00 11 1014.5
20180116234134 39 73 6.0 10.0 0.00 0.00 0.00 11 1014.3
20180116233410 39 73 6.0 10.0 0.00 0.00 0.00 11 1014.3
20180116232409 40 78 6.0 10.0 0.00 0.00 0.00 11 1014.4
20180116231409 41 75 6.0 9.0 0.00 0.00 0.00 10 1014.3
20180116225409 43 115 3.0 5.0 0.00 0.00 0.00 7 1014.4
20180116224409 44 199 2.0 4.0 0.00 0.00 0.00 11 1014.5
20180116223409 45 214 1.0 3.0 0.00 0.00 0.00 10 1014.5
20180116222410 45 214 1.0 4.0 0.00 0.00 0.00 10 1014.6
20180116221409 46 216 1.0 4.0 0.00 0.00 0.00 11 1014.8
20180116220411 46 0 0.0 3.0 0.00 0.00 0.00 12 1014.7